カタログに戻る

OPS 4467 A

運用中軍事PO
NORAD 812·PAYLOAD·🇺🇸 United States

打ち上げ Jun 18, 1964 から Vandenberg Space Force Base

Loading…

次のパス (今後24時間)

TLE

最新Source: Space-Track

元期: Sep 14, 2026, 10:41 UTC

1 00812U 64031A   26257.44550166  .00000024  00000-0  33620-4 0  9992
2 00812  99.8324  63.2681 0005359 188.8819 171.2263 14.24611149229007

AllMySatでOPS 4467 Aをリアルタイム追跡

Download on the App Store